Back to catalog

STARLINK-11494

AliveCommunicationsVLEO
NORAD 62272·PAYLOAD·🇺🇸 United States

Launched Dec 8, 2024 from Cape Canaveral Space Force Station

Loading…

Next Passes (next 24 hours)

TLE

FreshSource: CelesTrak SupGP

Epoch: Sep 14, 2026, 21:12 UTC

1 62272C 24237F   26257.88381944  .00024285  00000+0  18855-3 0  2571
2 62272  43.0008 356.4718 0001679 280.5582 117.1881 15.70834586    18

Track STARLINK-11494 in real time with AllMySat

Download on the App Store